Time,TemperatureF,DewpointF,PressureIn,WindDirection,WindDirectionDegrees,WindSpeedMPH,WindSpeedGustMPH,Humidity,HourlyPrecipIn,Conditions,Clouds,dailyrainin,SoftwareType,DateUTC
2013-09-10 00:13:00,75.0,70.0,29.67,West,281,4.0,7.0,85,0.00,,,0.04,,2013-09-10 05:13:00,
2013-09-10 00:23:00,75.0,70.0,29.67,West,281,5.0,8.0,84,0.00,,,0.04,,2013-09-10 05:23:00,
2013-09-10 00:43:00,74.0,69.0,29.68,WNW,283,7.0,12.0,84,0.00,,,0.04,,2013-09-10 05:43:00,
2013-09-10 00:53:00,74.0,69.0,29.68,WNW,283,7.0,12.0,84,0.00,,,0.04,,2013-09-10 05:53:00,
2013-09-10 01:12:00,74.0,69.0,29.70,West,274,6.0,10.0,84,0.00,,,0.04,,2013-09-10 06:12:00,
2013-09-10 01:22:00,73.0,69.0,29.69,West,260,5.0,8.0,86,0.00,,,0.04,,2013-09-10 06:22:00,
2013-09-10 01:42:00,73.0,68.0,29.70,WNW,283,8.0,13.0,83,0.00,,,0.04,,2013-09-10 06:42:00,
2013-09-10 01:52:00,73.0,68.0,29.70,WNW,283,8.0,13.0,83,0.00,,,0.04,,2013-09-10 06:52:00,
2013-09-10 02:12:00,72.0,66.0,29.70,West,273,5.0,9.0,82,0.00,,,0.04,,2013-09-10 07:12:00,
2013-09-10 02:22:00,72.0,67.0,29.72,West,262,5.0,9.0,83,0.00,,,0.04,,2013-09-10 07:22:00,
2013-09-10 02:42:00,71.0,66.0,29.72,West,262,3.0,5.0,84,0.00,,,0.04,,2013-09-10 07:42:00,
2013-09-10 02:52:00,70.0,66.0,29.73,West,264,3.0,7.0,86,0.00,,,0.04,,2013-09-10 07:52:00,
2013-09-10 03:12:00,70.0,66.0,29.74,West,266,4.0,6.0,86,0.00,,,0.04,,2013-09-10 08:12:00,
2013-09-10 03:22:00,70.0,66.0,29.74,West,266,4.0,6.0,86,0.00,,,0.04,,2013-09-10 08:22:00,
2013-09-10 03:42:00,70.0,66.0,29.74,West,274,2.0,6.0,87,0.00,,,0.04,,2013-09-10 08:42:00,
2013-09-10 03:52:00,69.0,65.0,29.74,West,263,4.0,6.0,88,0.00,,,0.04,,2013-09-10 08:52:00,
2013-09-10 04:11:00,69.0,66.0,29.73,WSW,240,1.0,4.0,89,0.00,,,0.04,,2013-09-10 09:11:00,
2013-09-10 04:22:00,68.0,65.0,29.74,WSW,255,4.0,4.0,89,0.00,,,0.04,,2013-09-10 09:22:00,
2013-09-10 04:33:00,68.0,65.0,29.74,WSW,255,4.0,4.0,89,0.00,,,0.04,,2013-09-10 09:33:00,
2013-09-10 04:43:00,68.0,65.0,29.74,WSW,255,4.0,4.0,89,0.00,,,0.04,,2013-09-10 09:43:00,
2013-09-10 04:54:00,68.0,65.0,29.75,WSW,257,4.0,6.0,90,0.00,,,0.04,,2013-09-10 09:54:00,
2013-09-10 05:13:00,67.0,64.0,29.76,West,280,2.0,4.0,91,0.00,,,0.04,,2013-09-10 10:13:00,
2013-09-10 05:23:00,67.0,64.0,29.75,SW,233,2.0,3.0,91,0.00,,,0.04,,2013-09-10 10:23:00,
2013-09-10 05:42:00,66.0,63.0,29.76,WSW,238,2.0,3.0,91,0.00,,,0.04,,2013-09-10 10:42:00,
2013-09-10 05:53:00,66.0,63.0,29.76,WSW,238,2.0,3.0,91,0.00,,,0.04,,2013-09-10 10:53:00,
2013-09-10 06:12:00,66.0,64.0,29.76,WSW,240,2.0,4.0,92,0.00,,,0.04,,2013-09-10 11:12:00,
2013-09-10 06:22:00,66.0,64.0,29.76,WSW,243,4.0,4.0,92,0.00,,,0.04,,2013-09-10 11:22:00,
2013-09-10 06:42:00,65.0,63.0,29.77,WSW,249,2.0,3.0,93,0.00,,,0.04,,2013-09-10 11:42:00,
2013-09-10 06:52:00,65.0,63.0,29.78,West,273,4.0,6.0,93,0.00,,,0.04,,2013-09-10 11:52:00,
2013-09-10 07:02:00,65.0,63.0,29.78,West,273,4.0,6.0,93,0.00,,,0.04,,2013-09-10 12:02:00,
2013-09-10 07:12:00,65.0,63.0,29.78,West,273,4.0,6.0,93,0.00,,,0.04,,2013-09-10 12:12:00,
2013-09-10 07:22:00,65.0,63.0,29.80,WSW,239,5.0,10.0,93,0.00,,,0.04,,2013-09-10 12:22:00,
2013-09-10 07:42:00,66.0,64.0,29.80,WNW,288,4.0,7.0,93,0.00,,,0.03,,2013-09-10 12:42:00,
2013-09-10 07:52:00,66.0,64.0,29.79,WSW,242,2.0,5.0,93,0.00,,,0.03,,2013-09-10 12:52:00,
2013-09-10 08:11:00,66.0,64.0,29.79,SSW,211,2.0,3.0,93,0.00,,,0.03,,2013-09-10 13:11:00,
2013-09-10 08:21:00,66.0,64.0,29.79,SSW,211,2.0,3.0,93,0.00,,,0.03,,2013-09-10 13:21:00,
2013-09-10 08:42:00,67.0,65.0,29.79,SSW,199,1.0,2.0,92,0.00,,,0.00,,2013-09-10 13:42:00,
2013-09-10 08:52:00,68.0,66.0,29.80,WSW,248,3.0,5.0,92,0.00,,,0.00,,2013-09-10 13:52:00,
2013-09-10 09:11:00,69.0,66.0,29.79,SSW,208,3.0,5.0,91,0.00,,,0.00,,2013-09-10 14:11:00,
2013-09-10 09:21:00,69.0,66.0,29.80,SW,214,3.0,5.0,90,0.00,,,0.00,,2013-09-10 14:21:00,
2013-09-10 09:42:00,70.0,67.0,29.80,SW,231,3.0,5.0,89,0.00,,,0.00,,2013-09-10 14:42:00,
2013-09-10 09:52:00,70.0,67.0,29.80,SW,231,3.0,5.0,89,0.00,,,0.00,,2013-09-10 14:52:00,
2013-09-10 10:11:00,71.0,67.0,29.80,WSW,240,4.0,6.0,86,0.00,,,0.00,,2013-09-10 15:11:00,
2013-09-10 10:22:00,71.0,66.0,29.81,SSW,198,4.0,6.0,85,0.00,,,0.00,,2013-09-10 15:22:00,
2013-09-10 10:43:00,72.0,66.0,29.82,West,260,5.0,9.0,82,0.00,,,0.00,,2013-09-10 15:43:00,
2013-09-10 10:54:00,72.0,66.0,29.82,West,260,5.0,9.0,82,0.00,,,0.00,,2013-09-10 15:54:00,
2013-09-10 11:13:00,73.0,66.0,29.82,WSW,240,5.0,8.0,79,0.00,,,0.00,,2013-09-10 16:13:00,
2013-09-10 11:23:00,74.0,66.0,29.83,SW,231,6.0,9.0,77,0.00,,,0.00,,2013-09-10 16:23:00,
2013-09-10 11:43:00,74.0,65.0,29.83,WSW,250,6.0,9.0,74,0.00,,,0.00,,2013-09-10 16:43:00,
2013-09-10 11:53:00,74.0,66.0,29.84,SW,219,5.0,7.0,75,0.00,,,0.00,,2013-09-10 16:53:00,
2013-09-10 12:12:00,74.0,66.0,29.83,West,266,3.0,7.0,75,0.00,,,0.00,,2013-09-10 17:12:00,
2013-09-10 12:23:00,74.0,66.0,29.83,West,266,3.0,7.0,75,0.00,,,0.00,,2013-09-10 17:23:00,
2013-09-10 12:43:00,72.0,65.0,29.84,West,280,3.0,8.0,80,0.00,,,0.00,,2013-09-10 17:43:00,
2013-09-10 12:53:00,74.0,67.0,29.83,SSW,212,3.0,7.0,79,0.00,,,0.00,,2013-09-10 17:53:00,
2013-09-10 13:12:00,75.0,66.0,29.83,SW,221,6.0,8.0,74,0.00,,,0.00,,2013-09-10 18:12:00,
2013-09-10 13:22:00,76.0,65.0,29.84,WSW,257,7.0,12.0,69,0.00,,,0.00,,2013-09-10 18:22:00,
2013-09-10 13:32:00,76.0,65.0,29.84,WSW,257,7.0,12.0,69,0.00,,,0.00,,2013-09-10 18:32:00,
2013-09-10 13:43:00,76.0,65.0,29.84,WSW,257,7.0,12.0,69,0.00,,,0.00,,2013-09-10 18:43:00,
2013-09-10 13:52:00,77.0,66.0,29.84,WNW,285,7.0,11.0,69,0.00,,,0.00,,2013-09-10 18:52:00,
2013-09-10 14:12:00,77.0,64.0,29.84,WNW,285,10.0,13.0,65,0.00,,,0.00,,2013-09-10 19:12:00,
2013-09-10 14:22:00,78.0,65.0,29.84,West,276,10.0,13.0,64,0.00,,,0.00,,2013-09-10 19:22:00,
2013-09-10 14:42:00,78.0,64.0,29.83,West,262,8.0,15.0,63,0.00,,,0.00,,2013-09-10 19:42:00,
2013-09-10 14:52:00,78.0,64.0,29.83,West,262,8.0,15.0,63,0.00,,,0.00,,2013-09-10 19:52:00,
2013-09-10 15:12:00,78.0,65.0,29.83,West,278,8.0,13.0,64,0.00,,,0.00,,2013-09-10 20:12:00,
2013-09-10 15:21:00,77.0,63.0,29.83,West,266,6.0,13.0,63,0.00,,,0.00,,2013-09-10 20:21:00,
2013-09-10 15:42:00,77.0,64.0,29.83,WSW,246,4.0,8.0,65,0.00,,,0.00,,2013-09-10 20:42:00,
2013-09-10 15:52:00,77.0,64.0,29.83,West,274,4.0,8.0,64,0.00,,,0.00,,2013-09-10 20:52:00,
2013-09-10 16:03:00,77.0,64.0,29.83,West,274,4.0,8.0,64,0.00,,,0.00,,2013-09-10 21:03:00,
2013-09-10 16:11:00,77.0,64.0,29.83,West,274,4.0,8.0,64,0.00,,,0.00,,2013-09-10 21:11:00,
2013-09-10 16:23:00,76.0,65.0,29.83,WNW,282,4.0,6.0,70,0.00,,,0.00,,2013-09-10 21:23:00,
2013-09-10 16:44:00,77.0,65.0,29.83,WNW,284,3.0,6.0,66,0.00,,,0.00,,2013-09-10 21:44:00,
2013-09-10 16:54:00,77.0,65.0,29.83,West,278,4.0,8.0,66,0.00,,,0.00,,2013-09-10 21:54:00,
2013-09-10 17:14:00,78.0,64.0,29.83,WSW,245,5.0,8.0,62,0.00,,,0.00,,2013-09-10 22:14:00,
2013-09-10 17:24:00,78.0,63.0,29.83,SW,229,6.0,8.0,61,0.00,,,0.00,,2013-09-10 22:24:00,
2013-09-10 17:33:00,78.0,63.0,29.83,SW,229,6.0,8.0,61,0.00,,,0.00,,2013-09-10 22:33:00,
2013-09-10 17:42:00,78.0,63.0,29.83,SW,229,6.0,8.0,61,0.00,,,0.00,,2013-09-10 22:42:00,
2013-09-10 17:54:00,78.0,63.0,29.83,SW,233,8.0,10.0,61,0.00,,,0.00,,2013-09-10 22:54:00,
2013-09-10 18:13:00,78.0,63.0,29.83,WSW,238,6.0,11.0,61,0.00,,,0.00,,2013-09-10 23:13:00,
2013-09-10 18:23:00,78.0,64.0,29.83,WSW,239,7.0,9.0,63,0.00,,,0.00,,2013-09-10 23:23:00,
2013-09-10 18:42:00,78.0,66.0,29.83,SW,233,4.0,8.0,66,0.00,,,0.00,,2013-09-10 23:42:00,
2013-09-10 18:53:00,78.0,66.0,29.83,SW,233,4.0,8.0,66,0.00,,,0.00,,2013-09-10 23:53:00,
2013-09-10 19:11:00,77.0,67.0,29.83,SW,229,2.0,5.0,71,0.00,,,0.00,,2013-09-11 00:11:00,
2013-09-10 19:22:00,76.0,66.0,29.84,SW,232,2.0,4.0,72,0.00,,,0.00,,2013-09-11 00:22:00,
2013-09-10 19:42:00,75.0,67.0,29.84,SW,228,2.0,2.0,75,0.00,,,0.00,,2013-09-11 00:42:00,
2013-09-10 19:52:00,74.0,66.0,29.84,SW,229,3.0,4.0,77,0.00,,,0.00,,2013-09-11 00:52:00,
2013-09-10 20:02:00,74.0,66.0,29.84,SW,229,3.0,4.0,77,0.00,,,0.00,,2013-09-11 01:02:00,
2013-09-10 20:11:00,74.0,66.0,29.84,SW,229,3.0,4.0,77,0.00,,,0.00,,2013-09-11 01:11:00,
2013-09-10 20:21:00,73.0,66.0,29.85,SW,228,4.0,5.0,78,0.00,,,0.00,,2013-09-11 01:21:00,
2013-09-10 20:42:00,72.0,65.0,29.85,WSW,240,3.0,5.0,80,0.00,,,0.00,,2013-09-11 01:42:00,
2013-09-10 20:53:00,71.0,65.0,29.86,WSW,245,4.0,5.0,82,0.00,,,0.00,,2013-09-11 01:53:00,
2013-09-10 21:11:00,71.0,65.0,29.86,WSW,248,3.0,5.0,82,0.00,,,0.00,,2013-09-11 02:11:00,
2013-09-10 21:22:00,71.0,65.0,29.86,WSW,248,3.0,5.0,82,0.00,,,0.00,,2013-09-11 02:22:00,
2013-09-10 21:43:00,71.0,65.0,29.87,WSW,248,4.0,6.0,82,0.00,,,0.00,,2013-09-11 02:43:00,
2013-09-10 21:52:00,70.0,65.0,29.87,SW,228,3.0,4.0,84,0.00,,,0.00,,2013-09-11 02:52:00,
2013-09-10 22:12:00,70.0,65.0,29.88,WSW,238,4.0,5.0,85,0.00,,,0.00,,2013-09-11 03:12:00,
2013-09-10 22:22:00,70.0,65.0,29.88,WNW,285,4.0,6.0,85,0.00,,,0.00,,2013-09-11 03:22:00,
2013-09-10 22:34:00,70.0,65.0,29.88,WNW,285,4.0,6.0,85,0.00,,,0.00,,2013-09-11 03:34:00,
2013-09-10 22:45:00,70.0,65.0,29.88,WNW,285,4.0,6.0,85,0.00,,,0.00,,2013-09-11 03:45:00,
2013-09-10 22:55:00,70.0,65.0,29.89,NW,304,3.0,4.0,84,0.00,,,0.00,,2013-09-11 03:55:00,
2013-09-10 23:14:00,70.0,65.0,29.90,WNW,300,0.0,1.0,83,0.00,,,0.00,,2013-09-11 04:14:00,
2013-09-10 23:24:00,69.0,64.0,29.90,SW,226,1.0,1.0,85,0.00,,,0.00,,2013-09-11 04:24:00,
2013-09-10 23:43:00,69.0,64.0,29.90,SW,218,0.0,1.0,84,0.00,,,0.00,,2013-09-11 04:43:00,
2013-09-10 23:54:00,69.0,64.0,29.90,SW,218,1.0,2.0,85,0.00,,,0.00,,2013-09-11 04:54:00,